This is the latest recevied weather packets stored in our database for station/object WA1TYB-13. If no packets are shown the sender has not sent any weather packets the latest 10 day(s).
| Time | Temp. | Humidity | Pressure | Rain* | Wind** | Luminosity | Snow |
|---|---|---|---|---|---|---|---|
| 1777758962 | 20° C | 31% | 1017.9 hPa | 0 mm | - | 605 W/m² | - |
| 1777758659 | 19.44° C | 26% | 1018 hPa | 0 mm | - | 357 W/m² | - |
| 1777758355 | 19.44° C | 27% | 1018.1 hPa | 0 mm | - | 364 W/m² | - |
| 1777758053 | 20° C | 29% | 1018.2 hPa | 0 mm | - | 291 W/m² | - |
| 1777757750 | 20° C | 27% | 1018.5 hPa | 0 mm | - | 424 W/m² | - |
| 1777757447 | 20° C | 27% | 1018.4 hPa | 0 mm | - | 641 W/m² | - |
| 1777757146 | 20° C | 27% | 1018.6 hPa | 0 mm | - | 702 W/m² | - |
| 1777756844 | 19.44° C | 27% | 1019 hPa | 0 mm | - | 572 W/m² | - |
| 1777756539 | 18.89° C | 28% | 1018.6 hPa | 0 mm | - | 466 W/m² | - |
| 1777756237 | 19.44° C | 31% | 1018.7 hPa | 0 mm | - | 640 W/m² | - |
| 1777755933 | 19.44° C | 30% | 1018.9 hPa | 0 mm | - | 555 W/m² | - |
| 1777755630 | 18.33° C | 31% | 1018.9 hPa | 0 mm | - | 493 W/m² | - |
| 1777755327 | 18.33° C | 31% | 1018.9 hPa | 0 mm | - | 566 W/m² | - |
| 1777755024 | 18.33° C | 33% | 1018.8 hPa | 0 mm | - | 448 W/m² | - |
| 1777754721 | 18.33° C | 31% | 1018.9 hPa | 0 mm | - | 388 W/m² | - |
| 1777754419 | 17.78° C | 31% | 1018.9 hPa | 0 mm | - | 397 W/m² | - |
| 1777754115 | 18.33° C | 30% | 1019.1 hPa | 0 mm | - | 340 W/m² | - |
| 1777753812 | 17.78° C | 32% | 1019 hPa | 0 mm | - | 306 W/m² | - |
| 1777753508 | 17.78° C | 30% | 1019.1 hPa | 0 mm | - | 317 W/m² | - |
| 1777753207 | 18.33° C | 28% | 1019.1 hPa | 0 mm | - | 317 W/m² | - |
| 1777752903 | 18.33° C | 28% | 1019.3 hPa | 0 mm | - | 425 W/m² | - |
| 1777752599 | 17.78° C | 30% | 1019.4 hPa | 0 mm | - | 327 W/m² | - |
| 1777752295 | 18.33° C | 28% | 1019.5 hPa | 0 mm | - | 330 W/m² | - |
| 1777751993 | 18.33° C | 31% | 1019.6 hPa | 0 mm | - | 351 W/m² | - |
| 1777751690 | 18.33° C | 31% | 1019.6 hPa | 0 mm | - | 328 W/m² | - |
* Rain latest hour (hover to see other rain measurements)
** Current wind speed in m/s (hover to see current wind gust speed)